Location: Newark
(48.6461°N, 4.3644°W)
Time: 03:25:27
(UTC+00:00)

STARLINK 1042 - Pass Details

Date: 10 December 2019
Orbit: 548 x 551 km, 53.0° (Epoch: 20 January)

Event Time Altitude Azimuth Distance (km) Brightness Sun altitude
Exits shadow 05:19:34 58° 148° (SSE) 672 4.1 -25.1°
Drops below altitude 10° 05:23:07 10° 125° (SE) 1,876 7.1 -24.6°
Enters shadow 06:20:39 -67° 317° (NW) 12,339 10.4 -15.3°
